Location: Grandview
(34.8900°N, 117.1058°W)
Time: 22:56:17
(UTC-07:00)

ISS - Pass Details

Date: 11 October 2017
Orbit: 401 x 408 km, 51.6° (Epoch: 18 October)

Event Time Altitude Azimuth Distance (km) Brightness Sun altitude
Rises 18:57:27 0° 330° (NNW) 2,322 0.4 -8.8°
Reaches altitude 10° 19:01:38 10° 22° (NNE) 1,462 -1.2 -9.7°
Maximum altitude 19:01:46 10° 24° (NNE) 1,461 -1.3 -9.7°
Drops below altitude 10° 19:01:54 10° 26° (NNE) 1,462 -1.3 -9.7°
Enters shadow 19:03:08 - 47° (NE) 1,569 -1.3 -10.0°
